Weather History for Bellingham, WA

Change the Weather History Date:

Friday, June 7, 2013

  Actual Average Record
Temperature  
Mean Temperature 60 °F 57 °F  
Max Temperature 66 °F 65 °F 79 °F (1965)
Min Temperature 54 °F 49 °F 42 °F (1976)
Degree Days  
Heating Degree Days 5 8  
Month to date heating degree days 34 56  
Since 1 June heating degree days 34 56  
Cooling Degree Days 0 0  
Month to date cooling degree days 0 0  
Year to date cooling degree days 0 0  
Since 1 June cooling degree days 0 0  
Growing Degree Days 10 (Base 50)    
Moisture  
Dew Point 47 °F    
Average Humidity 62    
Maximum Humidity 72    
Minimum Humidity 51    
Precipitation  
Precipitation T in 0.07 in 1.01 in (1971)
Month to date precipitation T 0.51  
Year to date precipitation 13.24 16.59  
Sea Level Pressure  
Sea Level Pressure 30.08 in    
Wind  
Wind Speed 12 mph (South)    
Max Wind Speed 18 mph    
Max Gust Speed 25 mph    
Visibility 10 miles    
Events Rain    
T = Trace of Precipitation, MM = Missing Value Source: NWS Daily Summary

Daily Weather History Graph

Daily Weather History Graph

Search for Another Location

Airport:

Trip Planner

Search our weather history database for the weather conditions in past years. The results will help you decide how hot, cold, wet, or windy it might be!

Date:

Astronomy

Jun. 07, 2013 Rise Set
Actual Time 5:08 AM PDT 9:10 PM PDT
Civil Twilight 4:26 AM PDT 9:52 PM PDT
Nautical Twilight 3:27 AM PDT 10:51 PM PDT
Astronomical Twilight 1:43 AM PDT 12:38 AM PDT
Moon 4:41 AM PDT (6/7) 8:23 PM PDT (6/7)
Length of Visible Light 17h 26m
Length of Day
16h 02m
Waning Crescent, 1% of the Moon is Illuminated
Jun 7
Waning Crescent
Jun 8
New
Jun 16
First Quarter
Jun 23
Full
Jun 29
Last Quarter

Hourly Weather History & Observations

Time (PDT) Temp. Dew Point Humidity Pressure Visibility Wind Dir Wind Speed Gust Speed Precip Events Conditions
12:53 AM 57.0 °F 44.1 °F 62% 30.02 in 10.0 mi SSW 3.5 mph - N/A   Partly Cloudy
1:53 AM 60.1 °F 42.1 °F 51% 30.01 in 10.0 mi South 9.2 mph - N/A   Overcast
2:53 AM 59.0 °F 41.0 °F 51% 30.01 in 10.0 mi South 13.8 mph 25.3 mph N/A   Overcast
3:53 AM 57.9 °F 42.1 °F 56% 30.04 in 10.0 mi South 15.0 mph 23.0 mph 0.00 in   Overcast
4:53 AM 57.0 °F 43.0 °F 59% 30.03 in 10.0 mi South 8.1 mph 18.4 mph N/A   Overcast
5:53 AM 55.9 °F 46.0 °F 69% 30.03 in 10.0 mi SSE 9.2 mph 17.3 mph N/A   Overcast
6:53 AM 57.9 °F 45.0 °F 62% 30.04 in 10.0 mi South 9.2 mph - N/A   Overcast
7:53 AM 57.0 °F 43.0 °F 59% 30.05 in 10.0 mi South 11.5 mph - 0.00 in   Overcast
8:53 AM 57.0 °F 45.0 °F 64% 30.07 in 10.0 mi SSE 8.1 mph - 0.00 in Rain Light Rain
9:53 AM 59.0 °F 45.0 °F 60% 30.08 in 10.0 mi SSE 11.5 mph - 0.00 in   Overcast
10:53 AM 59.0 °F 46.9 °F 64% 30.08 in 10.0 mi South 9.2 mph - N/A   Overcast
11:53 AM 60.1 °F 48.9 °F 67% 30.08 in 10.0 mi South 13.8 mph 20.7 mph N/A   Overcast
12:53 PM 62.1 °F 48.9 °F 62% 30.10 in 10.0 mi South 12.7 mph 20.7 mph N/A   Overcast
1:53 PM 64.0 °F 52.0 °F 65% 30.10 in 10.0 mi SSE 15.0 mph 23.0 mph N/A   Overcast
2:53 PM 64.9 °F 50.0 °F 58% 30.11 in 10.0 mi South 10.4 mph 20.7 mph N/A   Mostly Cloudy
3:53 PM 64.0 °F 50.0 °F 60% 30.12 in 10.0 mi South 12.7 mph 19.6 mph N/A   Overcast
4:53 PM 64.9 °F 51.1 °F 61% 30.12 in 10.0 mi South 10.4 mph - N/A   Clear
5:53 PM 64.0 °F 51.1 °F 63% 30.11 in 10.0 mi SSE 12.7 mph 20.7 mph N/A   Clear
6:53 PM 63.0 °F 52.0 °F 67% 30.12 in 10.0 mi South 12.7 mph 20.7 mph N/A   Clear
7:53 PM 61.0 °F 50.0 °F 67% 30.11 in 10.0 mi South 11.5 mph - N/A   Clear
8:53 PM 59.0 °F 48.0 °F 67% 30.11 in 10.0 mi South 12.7 mph - N/A   Clear
9:53 PM 59.0 °F 45.0 °F 60% 30.13 in 10.0 mi SSE 13.8 mph 19.6 mph N/A   Clear
10:53 PM 57.9 °F 44.1 °F 60% 30.14 in 10.0 mi SSE 13.8 mph 19.6 mph N/A   Clear
11:53 PM 55.9 °F 43.0 °F 62% 30.15 in 10.0 mi SSE 13.8 mph - N/A   Clear